Location: Newark
(52.5694°N, 1.3190°W)
Time: 14:57:33
(UTC+00:00)

N. Korean satellite - Pass Details

Date: 27 January 2020
Orbit: 456 x 506 km, 97.2° (Epoch: 17 February)

Event Time Altitude Azimuth Distance (km) Brightness Sun altitude
Rises 04:50:20 0° 29° (NNE) 2,542 10.7 -27.9°
Reaches altitude 10° 04:53:14 10° 56° (NE) 1,668 10.0 -27.5°
Maximum altitude 04:55:11 14° 89° (E) 1,438 9.8 -27.2°
Drops below altitude 10° 04:57:09 10° 122° (ESE) 1,676 9.9 -26.9°
Sets 05:00:04 0° 149° (SSE) 2,562 10.6 -26.4°
